GSAT-11

Last updated on Thu Jul 03 2025 00:02:48 GMT+0000 (Coordinated Universal Time)

1 43824U 18100B 25183.47405991 -.00000070 00000+0 00000+0 0 9995 2 43824 0.0648 267.9182 0008206 183.3384 74.1585 1.00272397 23974
UTC large
Height (km)
Speed (km/s)
/
Latitude / Longitude
Inclination (degrees)
Orbital Period (minutes)
Azimuth
Elevation
Range (km)
Doppler Factor

Next 0 passes for location: London (51.5072 / 0.1276)

Sorry there are no passes over London.